﻿_id,日時,平均風速(m/s),平均風向,最大瞬間風速(m/s),最大風速時風向,気温(℃),湿度(%),10分間移動積算雨量(mm),1時間移動積算雨量(mm),日雨量(mm),累計雨量(mm),日射(日積算)(MJ/m2),日照(日積算)(min),現地気圧(hPa),海面気圧(hPa)
1,2021-02-01T00:00:00,0.7,西北西,1.1,西北西,0,91.9,0,0,0,0,7.99,242,1016.6,1031.4
2,2021-02-01T00:01:00,0.7,西,1.1,西北西,0,91.7,0,0,0,0,0,0,1016.5,1031.3
3,2021-02-01T00:02:00,0.8,西,1.1,西北西,0,91.6,0,0,0,0,0,0,1016.5,1031.3
4,2021-02-01T00:03:00,0.8,西,1.1,西北西,0,91.7,0,0,0,0,0,0,1016.5,1031.3
5,2021-02-01T00:04:00,0.8,西,1.1,西北西,0,91.5,0,0,0,0,0,0,1016.5,1031.3
6,2021-02-01T00:05:00,0.8,西,1.1,西北西,-0.1,91.4,0,0,0,0,0,0,1016.5,1031.3
7,2021-02-01T00:06:00,0.8,西,1.1,西北西,0,91.4,0,0,0,0,0,0,1016.5,1031.3
8,2021-02-01T00:07:00,0.8,西,1.1,西,0,91.5,0,0,0,0,0,0,1016.4,1031.2
9,2021-02-01T00:08:00,0.8,西,1.1,西,0,91.8,0,0,0,0,0,0,1016.4,1031.2
10,2021-02-01T00:09:00,0.8,西,1.1,西,0,91.7,0,0,0,0,0,0,1016.3,1031.1
11,2021-02-01T00:10:00,0.8,西,1.1,西,0,91.4,0,0,0,0,0,0,1016.4,1031.2
12,2021-02-01T00:11:00,0.7,西,1,西,-0.1,91.2,0,0,0,0,0,0,1016.4,1031.2
13,2021-02-01T00:12:00,0.7,西,1,西,0,91.3,0,0,0,0,0,0,1016.4,1031.2
14,2021-02-01T00:13:00,0.7,西,1,西,0,91.4,0,0,0,0,0,0,1016.3,1031.1
15,2021-02-01T00:14:00,0.7,西,1,西,0,91.2,0,0,0,0,0,0,1016.3,1031.1
16,2021-02-01T00:15:00,0.7,西北西,0.9,西北西,0,91.1,0,0,0,0,0,0,1016.3,1031.1
17,2021-02-01T00:16:00,0.7,西北西,0.9,西北西,0,91.1,0,0,0,0,0,0,1016.3,1031.1
18,2021-02-01T00:17:00,0.6,西北西,0.9,西北西,-0.2,90.7,0,0,0,0,0,0,1016.3,1031.1
19,2021-02-01T00:18:00,0.6,西北西,0.9,西北西,-0.2,90.8,0,0,0,0,0,0,1016.3,1031.1
20,2021-02-01T00:19:00,0.6,西北西,0.9,西北西,-0.2,90.8,0,0,0,0,0,0,1016.2,1031
21,2021-02-01T00:20:00,0.5,西北西,0.8,西,-0.1,90.7,0,0,0,0,0,0,1016.2,1031
22,2021-02-01T00:21:00,0.5,西北西,0.8,西,0,91.3,0,0,0,0,0,0,1016.2,1031
23,2021-02-01T00:22:00,0.4,北西,0.8,西,0.1,91.8,0,0,0,0,0,0,1016.3,1031.1
24,2021-02-01T00:23:00,0.4,北西,0.8,西,0,91.6,0,0,0,0,0,0,1016.2,1031
25,2021-02-01T00:24:00,0.4,北北西,0.8,西,0,91.3,0,0,0,0,0,0,1016.2,1031
26,2021-02-01T00:25:00,0.3,北,0.7,北北東,0,91,0,0,0,0,0,0,1016.2,1031
27,2021-02-01T00:26:00,0.3,北,0.7,北北東,-0.1,90.7,0,0,0,0,0,0,1016.2,1031
28,2021-02-01T00:27:00,0.2,静穏,0.7,北北東,-0.1,90.9,0,0,0,0,0,0,1016.2,1031
29,2021-02-01T00:28:00,0.2,静穏,0.7,北北東,0,91,0,0,0,0,0,0,1016.2,1031
30,2021-02-01T00:29:00,0.2,静穏,0.7,北北東,0.1,91.5,0,0,0,0,0,0,1016.2,1031
31,2021-02-01T00:30:00,0.2,静穏,0.7,北北東,0,91.8,0,0,0,0,0,0,1016.1,1030.9
32,2021-02-01T00:31:00,0.2,静穏,0.7,北北東,0,91.6,0,0,0,0,0,0,1016.1,1030.9
33,2021-02-01T00:32:00,0.1,静穏,0.7,北北東,0,91.6,0,0,0,0,0,0,1016.1,1030.9
34,2021-02-01T00:33:00,0.1,静穏,0.5,北西,0,91.4,0,0,0,0,0,0,1016.1,1030.9
35,2021-02-01T00:34:00,0.1,静穏,0.5,北西,0,91.3,0,0,0,0,0,0,1016.1,1030.9
36,2021-02-01T00:35:00,0.1,静穏,0.5,北西,0,91.3,0,0,0,0,0,0,1016.1,1030.9
37,2021-02-01T00:36:00,0.2,静穏,0.5,北西,0,91.3,0,0,0,0,0,0,1016,1030.8
38,2021-02-01T00:37:00,0.1,静穏,0.5,北西,0,91.4,0,0,0,0,0,0,1016,1030.8
39,2021-02-01T00:38:00,0.1,静穏,0.5,北西,0,91.8,0,0,0,0,0,0,1015.9,1030.7
40,2021-02-01T00:39:00,0.1,静穏,0.5,北西,0,91.6,0,0,0,0,0,0,1015.9,1030.7
41,2021-02-01T00:40:00,0.1,静穏,0.6,西,-0.1,91.3,0,0,0,0,0,0,1015.8,1030.6
42,2021-02-01T00:41:00,0.2,静穏,0.7,西,0,91.9,0,0,0,0,0,0,1015.8,1030.6
43,2021-02-01T00:42:00,0.2,静穏,0.7,西,0,91.8,0,0,0,0,0,0,1015.8,1030.6
44,2021-02-01T00:43:00,0.1,静穏,0.7,西,0,92.1,0,0,0,0,0,0,1015.8,1030.6
45,2021-02-01T00:44:00,0.1,静穏,0.7,西,0.1,92.5,0,0,0,0,0,0,1015.8,1030.6
46,2021-02-01T00:45:00,0.1,静穏,0.7,西,0,92.5,0,0,0,0,0,0,1015.9,1030.7
47,2021-02-01T00:46:00,0.1,静穏,0.7,西,-0.1,92.1,0,0,0,0,0,0,1015.9,1030.7
48,2021-02-01T00:47:00,0.1,静穏,0.7,西,0,92.2,0,0,0,0,0,0,1015.9,1030.7
49,2021-02-01T00:48:00,0.2,静穏,0.8,西北西,0,92.6,0,0,0,0,0,0,1015.9,1030.7
50,2021-02-01T00:49:00,0.2,静穏,0.8,西北西,0.2,93.2,0,0,0,0,0,0,1015.9,1030.7
51,2021-02-01T00:50:00,0.3,北西,1,西,-0.1,92.8,0,0,0,0,0,0,1016,1030.8
52,2021-02-01T00:51:00,0.3,北西,1,西,0,92.6,0,0,0,0,0,0,1016,1030.8
53,2021-02-01T00:52:00,0.3,西北西,1.2,西北西,0,92.7,0,0,0,0,0,0,1016,1030.8
54,2021-02-01T00:53:00,0.3,西北西,1.2,西北西,0.2,93.2,0,0,0,0,0,0,1016,1030.8
55,2021-02-01T00:54:00,0.3,西,1.2,西北西,0.1,93.7,0,0,0,0,0,0,1016,1030.8
56,2021-02-01T00:55:00,0.3,西,1.2,西北西,0.1,93.5,0,0,0,0,0,0,1015.9,1030.7
57,2021-02-01T00:56:00,0.3,西,1.2,西北西,0,93.2,0,0,0,0,0,0,1015.9,1030.7
58,2021-02-01T00:57:00,0.3,西南西,1.2,西北西,-0.1,92.9,0,0,0,0,0,0,1015.9,1030.7
59,2021-02-01T00:58:00,0.3,西南西,1.2,西北西,-0.2,92.1,0,0,0,0,0,0,1015.9,1030.7
60,2021-02-01T00:59:00,0.3,南西,1.2,西北西,-0.2,92.8,0,0,0,0,0,0,1015.9,1030.7
61,2021-02-01T01:00:00,0.3,南南西,1.2,西北西,-0.4,92.2,0,0,0,0,0,0,1015.9,1030.7
62,2021-02-01T01:01:00,0.3,南南西,1.2,西北西,-0.5,92.1,0,0,0,0,0,0,1015.9,1030.7
63,2021-02-01T01:02:00,0.3,南,0.9,南南西,-0.3,92.8,0,0,0,0,0,0,1015.8,1030.6
64,2021-02-01T01:03:00,0.3,南,0.9,南南西,-0.2,93.4,0,0,0,0,0,0,1015.8,1030.6
65,2021-02-01T01:04:00,0.3,南,0.9,南南西,-0.3,93.6,0,0,0,0,0,0,1015.8,1030.6
66,2021-02-01T01:05:00,0.3,南,0.9,南南西,-0.3,93.7,0,0,0,0,0,0,1015.7,1030.5
67,2021-02-01T01:06:00,0.3,南,0.9,南南西,-0.2,93.6,0,0,0,0,0,0,1015.7,1030.5
68,2021-02-01T01:07:00,0.3,南,0.9,南南西,-0.2,93.8,0,0,0,0,0,0,1015.7,1030.5
69,2021-02-01T01:08:00,0.3,南南東,0.9,南南西,-0.2,94.1,0,0,0,0,0,0,1015.7,1030.5
70,2021-02-01T01:09:00,0.2,静穏,0.9,南南西,-0.2,93.9,0,0,0,0,0,0,1015.6,1030.4
71,2021-02-01T01:10:00,0.2,静穏,0.9,南南西,-0.1,94.1,0,0,0,0,0,0,1015.7,1030.5
72,2021-02-01T01:11:00,0.1,静穏,0.8,南南西,0,94.5,0,0,0,0,0,0,1015.7,1030.5
73,2021-02-01T01:12:00,0.1,静穏,0.8,南南西,-0.1,94.5,0,0,0,0,0,0,1015.7,1030.5
74,2021-02-01T01:13:00,0.1,静穏,0.7,西南西,0,94.6,0,0,0,0,0,0,1015.7,1030.5
75,2021-02-01T01:14:00,0.1,静穏,0.5,東南東,0,94.9,0,0,0,0,0,0,1015.7,1030.5
76,2021-02-01T01:15:00,0.1,静穏,0.5,東南東,0,94.9,0,0,0,0,0,0,1015.8,1030.6
77,2021-02-01T01:16:00,0.1,静穏,0.5,東南東,0,94.6,0,0,0,0,0,0,1015.8,1030.6
78,2021-02-01T01:17:00,0.1,静穏,0.5,北東,0,94.7,0,0,0,0,0,0,1015.8,1030.6
79,2021-02-01T01:18:00,0.1,静穏,0.5,北東,0,94.7,0,0,0,0,0,0,1015.9,1030.7
80,2021-02-01T01:19:00,0.1,静穏,0.5,北東,0,94.8,0,0,0,0,0,0,1015.9,1030.7
81,2021-02-01T01:20:00,0.1,静穏,0.5,北東,-0.2,94.4,0,0,0,0,0,0,1015.8,1030.6
82,2021-02-01T01:21:00,0.1,静穏,0.5,北東,0,94.3,0,0,0,0,0,0,1015.9,1030.7
83,2021-02-01T01:22:00,0.1,静穏,0.5,北東,0,94.8,0,0,0,0,0,0,1015.9,1030.7
84,2021-02-01T01:23:00,0.1,静穏,0.5,北東,0,94.9,0,0,0,0,0,0,1015.9,1030.7
85,2021-02-01T01:24:00,0.1,静穏,0.5,北東,0,95.1,0,0,0,0,0,0,1015.9,1030.7
86,2021-02-01T01:25:00,0.1,静穏,0.5,北東,-0.1,95.1,0,0,0,0,0,0,1015.9,1030.7
87,2021-02-01T01:26:00,0.1,静穏,0.5,北東,-0.2,94.6,0,0,0,0,0,0,1015.9,1030.7
88,2021-02-01T01:27:00,0.1,静穏,0.5,西南西,-0.2,94.3,0,0,0,0,0,0,1015.9,1030.7
89,2021-02-01T01:28:00,0.1,静穏,0.5,西南西,-0.2,94.4,0,0,0,0,0,0,1015.8,1030.6
90,2021-02-01T01:29:00,0.1,静穏,0.5,西南西,-0.2,94.8,0,0,0,0,0,0,1015.9,1030.7
91,2021-02-01T01:30:00,0.1,静穏,0.9,南西,-0.2,94.9,0,0,0,0,0,0,1015.9,1030.7
92,2021-02-01T01:31:00,0.1,静穏,0.9,南西,0,95.1,0,0,0,0,0,0,1015.9,1030.7
93,2021-02-01T01:32:00,0.1,静穏,0.9,南西,-0.1,95.3,0,0,0,0,0,0,1015.9,1030.7
94,2021-02-01T01:33:00,0.1,静穏,0.9,南西,-0.1,95.2,0,0,0,0,0,0,1015.9,1030.7
95,2021-02-01T01:34:00,0.1,静穏,0.9,南西,0,95.2,0,0,0,0,0,0,1015.9,1030.7
96,2021-02-01T01:35:00,0.1,静穏,0.9,南西,-0.2,95.2,0,0,0,0,0,0,1015.9,1030.7
97,2021-02-01T01:36:00,0.1,静穏,0.9,南西,-0.1,95.2,0,0,0,0,0,0,1015.8,1030.6
98,2021-02-01T01:37:00,0.1,静穏,0.9,南西,0,95.3,0,0,0,0,0,0,1015.8,1030.6
99,2021-02-01T01:38:00,0.1,静穏,0.9,南西,0,95.5,0,0,0,0,0,0,1015.8,1030.6
100,2021-02-01T01:39:00,0.2,静穏,1,南南西,0,95.5,0,0,0,0,0,0,1015.8,1030.6
101,2021-02-01T01:40:00,0.2,静穏,1,南南西,-0.2,95.4,0,0,0,0,0,0,1015.7,1030.5
102,2021-02-01T01:41:00,0.2,静穏,1,南南西,-0.2,94.7,0,0,0,0,0,0,1015.7,1030.5
103,2021-02-01T01:42:00,0.2,静穏,1,南南西,-0.2,95.2,0,0,0,0,0,0,1015.7,1030.5
104,2021-02-01T01:43:00,0.2,静穏,1,南南西,-0.4,94.9,0,0,0,0,0,0,1015.7,1030.5
105,2021-02-01T01:44:00,0.2,静穏,1,南南西,-0.4,94.5,0,0,0,0,0,0,1015.7,1030.5
106,2021-02-01T01:45:00,0.3,南,1,南南西,0,95.3,0,0,0,0,0,0,1015.7,1030.5
107,2021-02-01T01:46:00,0.3,南,1,南南西,-0.3,95.5,0,0,0,0,0,0,1015.7,1030.5
108,2021-02-01T01:47:00,0.3,南,1,南南西,-0.3,95.2,0,0,0,0,0,0,1015.7,1030.5
109,2021-02-01T01:48:00,0.3,南,1,南南西,0,95.4,0,0,0,0,0,0,1015.6,1030.4
110,2021-02-01T01:49:00,0.3,南,1,南南西,0,95.7,0,0,0,0,0,0,1015.7,1030.5
111,2021-02-01T01:50:00,0.4,南,1.1,南西,0,95.7,0,0,0,0,0,0,1015.6,1030.4
112,2021-02-01T01:51:00,0.4,南南西,1.1,南西,-0.2,95.4,0,0,0,0,0,0,1015.7,1030.5
113,2021-02-01T01:52:00,0.5,南南西,1.1,南西,-0.2,95.3,0,0,0,0,0,0,1015.7,1030.5
114,2021-02-01T01:53:00,0.5,南南西,1.2,南南西,-0.3,95.2,0,0,0,0,0,0,1015.7,1030.5
115,2021-02-01T01:54:00,0.6,南南西,1.5,南南西,-0.2,95,0,0,0,0,0,0,1015.7,1030.5
116,2021-02-01T01:55:00,0.7,南西,1.5,南南西,-0.1,95.4,0,0,0,0,0,0,1015.7,1030.5
117,2021-02-01T01:56:00,0.8,南西,1.5,南南西,-0.2,95.4,0,0,0,0,0,0,1015.7,1030.5
118,2021-02-01T01:57:00,0.8,南西,1.5,南南西,-0.1,95.5,0,0,0,0,0,0,1015.7,1030.5
119,2021-02-01T01:58:00,0.9,南西,1.5,南南西,-0.2,95.5,0,0,0,0,0,0,1015.7,1030.5
120,2021-02-01T01:59:00,0.9,南南西,1.6,南西,-0.4,95.3,0,0,0,0,0,0,1015.6,1030.4
121,2021-02-01T02:00:00,0.9,南南西,1.6,南西,-0.5,95.1,0,0,0,0,0,0,1015.6,1030.4
122,2021-02-01T02:01:00,0.9,南西,1.6,南西,-0.2,95.2,0,0,0,0,0,0,1015.5,1030.3
123,2021-02-01T02:02:00,1,南南西,1.6,南西,-0.2,95.6,0,0,0,0,0,0,1015.6,1030.4
124,2021-02-01T02:03:00,1,南西,1.6,南西,-0.3,95.6,0,0,0,0,0,0,1015.6,1030.4
125,2021-02-01T02:04:00,1,南西,1.6,南西,-0.5,95.4,0,0,0,0,0,0,1015.5,1030.3
126,2021-02-01T02:05:00,1,南西,1.6,南西,-0.6,95.1,0,0,0,0,0,0,1015.6,1030.4
127,2021-02-01T02:06:00,1.1,南西,1.6,南西,-0.7,94.7,0,0,0,0,0,0,1015.5,1030.3
128,2021-02-01T02:07:00,1.1,南西,1.6,南西,-0.3,95.3,0,0,0,0,0,0,1015.4,1030.2
129,2021-02-01T02:08:00,1,南西,1.6,南西,-0.6,95.6,0,0,0,0,0,0,1015.4,1030.2
130,2021-02-01T02:09:00,1,南西,1.5,南南西,-0.7,95,0,0,0,0,0,0,1015.4,1030.2
131,2021-02-01T02:10:00,0.9,南西,1.5,南南西,-0.6,95.1,0,0,0,0,0,0,1015.4,1030.2
132,2021-02-01T02:11:00,0.9,南西,1.5,南南西,-0.7,95.2,0,0,0,0,0,0,1015.3,1030.1
133,2021-02-01T02:12:00,0.9,南西,1.5,南南西,-0.6,95.4,0,0,0,0,0,0,1015.3,1030.1
134,2021-02-01T02:13:00,0.9,南西,1.5,南南西,-0.5,95.5,0,0,0,0,0,0,1015.3,1030.1
135,2021-02-01T02:14:00,0.9,南西,1.5,南南西,-0.4,95.7,0,0,0,0,0,0,1015.3,1030.1
136,2021-02-01T02:15:00,0.8,南西,1.5,南南西,-0.7,95.7,0,0,0,0,0,0,1015.3,1030.1
137,2021-02-01T02:16:00,0.8,南西,1.5,南西,-0.6,95.4,0,0,0,0,0,0,1015.3,1030.1
138,2021-02-01T02:17:00,0.9,南西,1.5,南西,-0.6,95.5,0,0,0,0,0,0,1015.3,1030.1
139,2021-02-01T02:18:00,0.9,南西,1.5,南西,-0.4,95.5,0,0,0,0,0,0,1015.2,1030
140,2021-02-01T02:19:00,0.9,南西,1.5,南西,-0.4,95.7,0,0,0,0,0,0,1015.3,1030.1
141,2021-02-01T02:20:00,1,南西,1.5,南西,-0.5,95.7,0,0,0,0,0,0,1015.2,1030
142,2021-02-01T02:21:00,1,南西,1.5,南西,-0.4,95.7,0,0,0,0,0,0,1015.2,1030
143,2021-02-01T02:22:00,1,南西,1.5,南西,-0.6,95.6,0,0,0,0,0,0,1015.2,1030
144,2021-02-01T02:23:00,1,南西,1.5,南西,-0.5,95.6,0,0,0,0,0,0,1015.2,1030
145,2021-02-01T02:24:00,1,南西,1.5,南西,-0.5,95.6,0,0,0,0,0,0,1015.2,1030
146,2021-02-01T02:25:00,1,南西,1.5,南西,-0.6,95.6,0,0,0,0,0,0,1015.1,1029.9
147,2021-02-01T02:26:00,1,南西,1.5,南南西,-0.3,95.6,0,0,0,0,0,0,1015.1,1029.9
148,2021-02-01T02:27:00,1,南西,1.5,南南西,-0.6,95.6,0,0,0,0,0,0,1015.1,1029.9
149,2021-02-01T02:28:00,1,南西,1.7,南南西,-0.7,95.4,0,0,0,0,0,0,1015.1,1029.9
150,2021-02-01T02:29:00,1,南西,1.7,南南西,-0.7,95.4,0,0,0,0,0,0,1015.1,1029.9
151,2021-02-01T02:30:00,1,南西,1.7,南南西,-0.6,95.6,0,0,0,0,0,0,1015.2,1030
152,2021-02-01T02:31:00,1.1,南西,1.7,南南西,-0.7,95.5,0,0,0,0,0,0,1015.2,1030
153,2021-02-01T02:32:00,1.1,南西,1.7,南南西,-0.8,95.5,0,0,0,0,0,0,1015.2,1030
154,2021-02-01T02:33:00,1,南西,1.7,南南西,-0.8,95.4,0,0,0,0,0,0,1015.3,1030.1
155,2021-02-01T02:34:00,1,南西,1.7,南南西,-0.9,95.5,0,0,0,0,0,0,1015.2,1030.1
156,2021-02-01T02:35:00,0.9,南西,1.7,南南西,-0.9,95.4,0,0,0,0,0,0,1015.2,1030.1
157,2021-02-01T02:36:00,1,南南西,1.7,南南西,-1,95.3,0,0,0,0,0,0,1015.1,1030
158,2021-02-01T02:37:00,1,南南西,1.7,南南西,-0.9,95.4,0,0,0,0,0,0,1015.1,1030
159,2021-02-01T02:38:00,0.9,南南西,1.6,南南西,-0.7,95.6,0,0,0,0,0,0,1015.1,1029.9
160,2021-02-01T02:39:00,0.8,南南西,1.6,南南西,-0.6,95.8,0,0,0,0,0,0,1015.1,1029.9
161,2021-02-01T02:40:00,0.7,南西,1.6,南南西,-0.5,95.9,0,0,0,0,0,0,1015.1,1029.9
162,2021-02-01T02:41:00,0.6,南西,1.6,南南西,-0.6,96,0,0,0,0,0,0,1015.1,1029.9
163,2021-02-01T02:42:00,0.5,南西,1.4,南南西,-0.6,95.8,0,0,0,0,0,0,1015.1,1029.9
164,2021-02-01T02:43:00,0.5,西南西,1.4,南南西,-0.6,95.8,0,0,0,0,0,0,1015,1029.8
165,2021-02-01T02:44:00,0.5,西南西,1.4,南南西,-0.6,95.7,0,0,0,0,0,0,1015,1029.8
166,2021-02-01T02:45:00,0.5,西南西,1.4,南南西,-0.6,95.7,0,0,0,0,0,0,1015,1029.8
167,2021-02-01T02:46:00,0.4,西,1.3,南,-0.8,95.7,0,0,0,0,0,0,1015,1029.8
168,2021-02-01T02:47:00,0.4,西,1.1,西南西,-0.5,95.7,0,0,0,0,0,0,1014.9,1029.7
169,2021-02-01T02:48:00,0.3,西,1.1,西南西,-0.6,95.9,0,0,0,0,0,0,1014.9,1029.7
170,2021-02-01T02:49:00,0.3,西,1.1,西南西,-0.8,95.7,0,0,0,0,0,0,1014.9,1029.7
171,2021-02-01T02:50:00,0.3,西,1.1,西南西,-0.9,95.5,0,0,0,0,0,0,1014.9,1029.7
172,2021-02-01T02:51:00,0.3,西,1.1,西南西,-0.7,95.6,0,0,0,0,0,0,1014.8,1029.6
173,2021-02-01T02:52:00,0.3,西,1.1,西南西,-0.5,95.8,0,0,0,0,0,0,1014.8,1029.6
174,2021-02-01T02:53:00,0.3,西,1.1,西南西,-0.5,96,0,0,0,0,0,0,1014.8,1029.6
175,2021-02-01T02:54:00,0.2,静穏,1,西北西,-0.6,96,0,0,0,0,0,0,1014.8,1029.6
176,2021-02-01T02:55:00,0.2,静穏,0.8,西北西,-0.3,96,0,0,0,0,0,0,1014.8,1029.6
177,2021-02-01T02:56:00,0.2,静穏,0.8,西北西,-0.2,96.1,0,0,0,0,0,0,1014.8,1029.6
178,2021-02-01T02:57:00,0.1,静穏,0.8,西北西,-0.5,96.1,0,0,0,0,0,0,1014.7,1029.5
179,2021-02-01T02:58:00,0.1,静穏,0.8,西北西,-0.8,95.7,0,0,0,0,0,0,1014.6,1029.4
180,2021-02-01T02:59:00,0.2,静穏,0.8,西北西,-0.9,95.4,0,0,0,0,0,0,1014.6,1029.4
181,2021-02-01T03:00:00,0.2,静穏,0.9,南,-0.9,95.2,0,0,0,0,0,0,1014.6,1029.4
182,2021-02-01T03:01:00,0.3,南西,0.9,南,-0.7,95.3,0,0,0,0,0,0,1014.6,1029.4
183,2021-02-01T03:02:00,0.3,南西,0.9,南,-0.5,95.5,0,0,0,0,0,0,1014.6,1029.4
184,2021-02-01T03:03:00,0.3,南南西,1,南南東,-0.5,95.9,0,0,0,0,0,0,1014.5,1029.3
185,2021-02-01T03:04:00,0.3,南南西,1,南南東,-0.4,95.9,0,0,0,0,0,0,1014.5,1029.3
186,2021-02-01T03:05:00,0.4,南南西,1,南南東,-0.3,96.1,0,0,0,0,0,0,1014.6,1029.4
187,2021-02-01T03:06:00,0.5,南南西,1.3,南南西,-0.4,96,0,0,0,0,0,0,1014.7,1029.5
188,2021-02-01T03:07:00,0.6,南南西,1.7,南西,-0.5,95.8,0,0,0,0,0,0,1014.7,1029.5
189,2021-02-01T03:08:00,0.7,南南西,1.7,南西,-0.5,95.8,0,0,0,0,0,0,1014.6,1029.4
190,2021-02-01T03:09:00,0.7,南南西,1.7,南西,-0.4,95.8,0,0,0,0,0,0,1014.6,1029.4
191,2021-02-01T03:10:00,0.7,南南西,1.7,南西,-0.3,95.8,0,0,0,0,0,0,1014.5,1029.3
192,2021-02-01T03:11:00,0.8,南南西,1.7,南西,-0.4,95.9,0,0,0,0,0,0,1014.5,1029.3
193,2021-02-01T03:12:00,0.9,南南西,1.7,南西,-0.5,95.9,0,0,0,0,0,0,1014.5,1029.3
194,2021-02-01T03:13:00,0.9,南西,1.7,南西,-0.6,95.7,0,0,0,0,0,0,1014.5,1029.3
195,2021-02-01T03:14:00,0.9,南西,1.7,南西,-0.5,95.5,0,0,0,0,0,0,1014.5,1029.3
196,2021-02-01T03:15:00,1,南南西,2,南南西,-0.4,95.7,0,0,0,0,0,0,1014.5,1029.3
197,2021-02-01T03:16:00,1,南南西,2,南南西,-0.5,95.9,0,0,0,0,0,0,1014.5,1029.3
198,2021-02-01T03:17:00,1,南南西,2,南南西,-0.4,95.8,0,0,0,0,0,0,1014.5,1029.3
199,2021-02-01T03:18:00,1,南西,2,南南西,-0.2,95.9,0,0,0,0,0,0,1014.6,1029.4
200,2021-02-01T03:19:00,0.9,南西,2,南南西,-0.4,96,0,0,0,0,0,0,1014.5,1029.3
201,2021-02-01T03:20:00,1,南西,2,南南西,-0.5,95.9,0,0,0,0,0,0,1014.6,1029.4
202,2021-02-01T03:21:00,0.9,南西,2,南南西,-0.4,95.9,0,0,0,0,0,0,1014.5,1029.3
203,2021-02-01T03:22:00,0.8,南西,2,南南西,-0.6,95.7,0,0,0,0,0,0,1014.5,1029.3
204,2021-02-01T03:23:00,0.8,南西,2,南南西,-0.5,95.7,0,0,0,0,0,0,1014.6,1029.4
205,2021-02-01T03:24:00,0.8,南西,2,南南西,-0.5,95.8,0,0,0,0,0,0,1014.6,1029.4
206,2021-02-01T03:25:00,0.7,南西,1.7,南南西,-0.5,95.8,0,0,0,0,0,0,1014.6,1029.4
207,2021-02-01T03:26:00,0.6,南西,1.7,南南西,-0.4,95.8,0,0,0,0,0,0,1014.6,1029.4
208,2021-02-01T03:27:00,0.5,南西,1.5,西,-0.5,96,0,0,0,0,0,0,1014.6,1029.4
209,2021-02-01T03:28:00,0.5,南西,1.5,西,-0.8,95.7,0,0,0,0,0,0,1014.5,1029.3
210,2021-02-01T03:29:00,0.4,南西,1.5,西,-0.9,95.4,0,0,0,0,0,0,1014.5,1029.3
211,2021-02-01T03:30:00,0.4,南南西,1.2,西北西,-1,95.2,0,0,0,0,0,0,1014.4,1029.2
212,2021-02-01T03:31:00,0.4,南南西,1.1,南南西,-1,95.2,0,0,0,0,0,0,1014.4,1029.2
213,2021-02-01T03:32:00,0.4,南南西,1.2,南,-1.1,95.3,0,0,0,0,0,0,1014.4,1029.3
214,2021-02-01T03:33:00,0.4,南南西,1.2,南,-1.1,95.3,0,0,0,0,0,0,1014.4,1029.3
215,2021-02-01T03:34:00,0.4,南南西,1.2,南,-0.9,95.6,0,0,0,0,0,0,1014.4,1029.2
216,2021-02-01T03:35:00,0.5,南南西,1.2,南,-0.7,95.8,0,0,0,0,0,0,1014.3,1029.1
217,2021-02-01T03:36:00,0.5,南南西,1.2,南,-0.7,96,0,0,0,0,0,0,1014.3,1029.1
218,2021-02-01T03:37:00,0.5,南南西,1.2,南,-0.9,96,0,0,0,0,0,0,1014.3,1029.1
219,2021-02-01T03:38:00,0.5,南南西,1.2,南,-0.7,95.9,0,0,0,0,0,0,1014.3,1029.1
220,2021-02-01T03:39:00,0.5,南南西,1.2,南,-0.7,95.9,0,0,0,0,0,0,1014.3,1029.1
221,2021-02-01T03:40:00,0.5,南南西,1.2,南,-1,95.8,0,0,0,0,0,0,1014.3,1029.1
222,2021-02-01T03:41:00,0.6,南西,1.2,南,-0.8,95.6,0,0,0,0,0,0,1014.3,1029.1
223,2021-02-01T03:42:00,0.5,南西,1.2,南,-0.9,95.7,0,0,0,0,0,0,1014.3,1029.1
224,2021-02-01T03:43:00,0.5,南西,1.2,南,-0.7,95.8,0,0,0,0,0,0,1014.3,1029.1
225,2021-02-01T03:44:00,0.6,南西,1.1,南南西,-0.8,96,0,0,0,0,0,0,1014.2,1029
226,2021-02-01T03:45:00,0.5,南西,1.1,南南西,-0.9,95.9,0,0,0,0,0,0,1014.2,1029
227,2021-02-01T03:46:00,0.5,南西,1.1,南南西,-0.9,95.8,0,0,0,0,0,0,1014.2,1029
228,2021-02-01T03:47:00,0.5,南西,1.1,南南西,-0.9,95.9,0,0,0,0,0,0,1014.2,1029
229,2021-02-01T03:48:00,0.5,南西,1.1,南南西,-0.8,95.9,0,0,0,0,0,0,1014.2,1029
230,2021-02-01T03:49:00,0.5,南西,1.1,南南西,-0.8,96,0,0,0,0,0,0,1014.2,1029
231,2021-02-01T03:50:00,0.5,南西,1.1,南南西,-0.7,96,0,0,0,0,0,0,1014.1,1028.9
232,2021-02-01T03:51:00,0.5,南西,1.1,南南西,-0.9,95.9,0,0,0,0,0,0,1014.1,1028.9
233,2021-02-01T03:52:00,0.5,南西,1.1,南南西,-0.9,95.9,0,0,0,0,0,0,1014.1,1028.9
234,2021-02-01T03:53:00,0.5,南西,1.1,南南西,-1.1,95.7,0,0,0,0,0,0,1014.2,1029
235,2021-02-01T03:54:00,0.5,南西,1.2,南西,-1,95.6,0,0,0,0,0,0,1014.2,1029
236,2021-02-01T03:55:00,0.5,南西,1.3,南西,-1.1,95.6,0,0,0,0,0,0,1014.2,1029
237,2021-02-01T03:56:00,0.6,南西,1.3,南西,-0.9,95.7,0,0,0,0,0,0,1014.2,1029
238,2021-02-01T03:57:00,0.6,南西,1.3,南西,-0.8,96,0,0,0,0,0,0,1014.2,1029
239,2021-02-01T03:58:00,0.6,南西,1.3,南西,-0.8,96,0,0,0,0,0,0,1014.2,1029
240,2021-02-01T03:59:00,0.7,南西,1.3,南西,-0.8,96,0,0,0,0,0,0,1014.2,1029
241,2021-02-01T04:00:00,0.7,南西,1.3,南西,-0.8,96,0,0,0,0,0,0,1014.2,1029
242,2021-02-01T04:01:00,0.7,南西,1.3,南西,-1,95.9,0,0,0,0,0,0,1014.2,1029
243,2021-02-01T04:02:00,0.7,南西,1.3,南西,-1,95.7,0,0,0,0,0,0,1014.1,1028.9
244,2021-02-01T04:03:00,0.7,南西,1.3,南西,-0.7,95.9,0,0,0,0,0,0,1014.1,1028.9
245,2021-02-01T04:04:00,0.7,南西,1.3,南西,-0.7,96,0,0,0,0,0,0,1014.2,1029
246,2021-02-01T04:05:00,0.7,南西,1.2,南西,-0.8,96,0,0,0,0,0,0,1014.1,1028.9
247,2021-02-01T04:06:00,0.6,南西,1.2,南西,-0.7,96,0,0,0,0,0,0,1014.2,1029
248,2021-02-01T04:07:00,0.6,南西,1.2,南西,-0.8,96,0,0,0,0,0,0,1014.1,1028.9
249,2021-02-01T04:08:00,0.6,南西,1.2,南西,-0.8,95.9,0,0,0,0,0,0,1014.1,1028.9
250,2021-02-01T04:09:00,0.6,南西,1.3,南南西,-0.9,95.9,0,0,0,0,0,0,1014.1,1028.9
251,2021-02-01T04:10:00,0.6,南西,1.3,南南西,-0.8,95.8,0,0,0,0,0,0,1014.1,1028.9
252,2021-02-01T04:11:00,0.6,南西,1.3,南南西,-0.9,95.9,0,0,0,0,0,0,1014.1,1028.9
253,2021-02-01T04:12:00,0.6,南西,1.3,南南西,-0.9,95.8,0,0,0,0,0,0,1014.2,1029
254,2021-02-01T04:13:00,0.7,南西,1.3,南南西,-0.8,95.8,0,0,0,0,0,0,1014.1,1028.9
255,2021-02-01T04:14:00,0.6,南西,1.3,南南西,-0.9,95.9,0,0,0,0,0,0,1014.1,1028.9
256,2021-02-01T04:15:00,0.6,南西,1.3,南南西,-0.9,95.8,0,0,0,0,0,0,1014.2,1029
257,2021-02-01T04:16:00,0.5,南西,1.3,南南西,-0.9,95.9,0,0,0,0,0,0,1014.2,1029
258,2021-02-01T04:17:00,0.5,南西,1.3,南南西,-0.9,95.9,0,0,0,0,0,0,1014.1,1028.9
259,2021-02-01T04:18:00,0.5,南西,1.3,南南西,-0.7,95.9,0,0,0,0,0,0,1014,1028.8
260,2021-02-01T04:19:00,0.5,南西,1.3,南南西,-0.7,96,0,0,0,0,0,0,1014,1028.8
261,2021-02-01T04:20:00,0.4,南西,1,南西,-0.8,96,0,0,0,0,0,0,1013.9,1028.7
262,2021-02-01T04:21:00,0.4,南西,1,南西,-0.7,95.9,0,0,0,0,0,0,1014,1028.8
263,2021-02-01T04:22:00,0.4,南西,1.1,南南西,-0.6,96,0,0,0,0,0,0,1014,1028.8
264,2021-02-01T04:23:00,0.4,南西,1.1,南南西,-0.7,96,0,0,0,0,0,0,1014,1028.8
265,2021-02-01T04:24:00,0.4,南西,1.1,南南西,-0.8,95.9,0,0,0,0,0,0,1014,1028.8
266,2021-02-01T04:25:00,0.4,西南西,1.1,南南西,-0.7,95.9,0,0,0,0,0,0,1013.9,1028.7
267,2021-02-01T04:26:00,0.4,西南西,1.1,南南西,-0.6,96,0,0,0,0,0,0,1013.9,1028.7
268,2021-02-01T04:27:00,0.4,西南西,1.1,南南西,-0.9,95.9,0,0,0,0,0,0,1013.9,1028.7
269,2021-02-01T04:28:00,0.4,西南西,1.1,南南西,-0.7,95.8,0,0,0,0,0,0,1013.9,1028.7
270,2021-02-01T04:29:00,0.4,南西,1.1,南南西,-0.9,95.8,0,0,0,0,0,0,1013.8,1028.6
271,2021-02-01T04:30:00,0.4,南西,1.1,南南西,-1,95.8,0,0,0,0,0,0,1013.8,1028.6
272,2021-02-01T04:31:00,0.4,南西,1.1,南南西,-0.9,95.6,0,0,0,0,0,0,1013.8,1028.6
273,2021-02-01T04:32:00,0.4,南西,1.1,南西,-0.7,95.9,0,0,0,0,0,0,1013.8,1028.6
274,2021-02-01T04:33:00,0.4,南西,1.1,南西,-0.6,96,0,0,0,0,0,0,1013.8,1028.6
275,2021-02-01T04:34:00,0.3,南西,1,西南西,-0.7,96.1,0,0,0,0,0,0,1013.8,1028.6
276,2021-02-01T04:35:00,0.3,南西,1,西南西,-0.7,96,0,0,0,0,0,0,1013.8,1028.6
277,2021-02-01T04:36:00,0.3,南西,0.8,西南西,-0.6,96,0,0,0,0,0,0,1013.8,1028.6
278,2021-02-01T04:37:00,0.2,静穏,0.8,西南西,-0.5,96.1,0,0,0,0,0,0,1013.7,1028.5
279,2021-02-01T04:38:00,0.2,静穏,0.8,西南西,-0.6,96.2,0,0,0,0,0,0,1013.7,1028.5
280,2021-02-01T04:39:00,0.3,南西,1,南西,-0.7,96,0,0,0,0,0,0,1013.8,1028.6
281,2021-02-01T04:40:00,0.3,南西,1,南西,-0.6,96,0,0,0,0,0,0,1013.8,1028.6
282,2021-02-01T04:41:00,0.3,南西,1,南西,-0.8,95.9,0,0,0,0,0,0,1013.7,1028.5
283,2021-02-01T04:42:00,0.4,南西,1,南西,-0.8,95.8,0,0,0,0,0,0,1013.7,1028.5
284,2021-02-01T04:43:00,0.4,南西,1,南西,-1,95.6,0,0,0,0,0,0,1013.8,1028.6
285,2021-02-01T04:44:00,0.4,南西,1.1,南南西,-0.9,95.6,0,0,0,0,0,0,1013.8,1028.6
286,2021-02-01T04:45:00,0.5,南西,1.2,南南西,-0.8,95.7,0,0,0,0,0,0,1013.8,1028.6
287,2021-02-01T04:46:00,0.6,南西,1.2,南南西,-0.9,95.8,0,0,0,0,0,0,1013.9,1028.7
288,2021-02-01T04:47:00,0.6,南西,1.5,南西,-1,95.8,0,0,0,0,0,0,1013.8,1028.6
289,2021-02-01T04:48:00,0.7,南西,1.5,南西,-0.7,95.9,0,0,0,0,0,0,1013.9,1028.7
290,2021-02-01T04:49:00,0.7,南西,1.5,南西,-0.6,96.2,0,0,0,0,0,0,1013.8,1028.6
291,2021-02-01T04:50:00,0.7,南西,1.5,南西,-0.7,96.2,0,0,0,0,0,0,1013.8,1028.6
292,2021-02-01T04:51:00,0.7,南西,1.5,南西,-0.6,96.1,0,0,0,0,0,0,1013.8,1028.6
293,2021-02-01T04:52:00,0.6,南西,1.5,南西,-0.6,96.1,0,0,0,0,0,0,1013.8,1028.6
294,2021-02-01T04:53:00,0.5,南西,1.5,南西,-0.8,96.1,0,0,0,0,0,0,1013.7,1028.5
295,2021-02-01T04:54:00,0.5,南西,1.5,南西,-0.7,95.9,0,0,0,0,0,0,1013.7,1028.5
296,2021-02-01T04:55:00,0.5,南西,1.5,南西,-0.8,95.9,0,0,0,0,0,0,1013.6,1028.4
297,2021-02-01T04:56:00,0.5,南西,1.5,南西,-1,95.8,0,0,0,0,0,0,1013.6,1028.4
298,2021-02-01T04:57:00,0.4,南西,1.3,南南西,-1.1,95.6,0,0,0,0,0,0,1013.6,1028.4
299,2021-02-01T04:58:00,0.4,南西,1.2,南,-0.8,95.6,0,0,0,0,0,0,1013.6,1028.4
300,2021-02-01T04:59:00,0.4,南西,1.2,南,-0.6,95.9,0,0,0,0,0,0,1013.6,1028.4
301,2021-02-01T05:00:00,0.4,南西,1.2,南,-0.5,96.2,0,0,0,0,0,0,1013.6,1028.4
302,2021-02-01T05:01:00,0.4,南西,1.2,南,-0.4,96.3,0,0,0,0,0,0,1013.6,1028.4
303,2021-02-01T05:02:00,0.5,南西,1.2,南,-0.7,96.3,0,0,0,0,0,0,1013.6,1028.4
304,2021-02-01T05:03:00,0.5,南西,1.2,南,-0.6,96,0,0,0,0,0,0,1013.6,1028.4
305,2021-02-01T05:04:00,0.5,南西,1.2,南,-0.8,96,0,0,0,0,0,0,1013.6,1028.4
306,2021-02-01T05:05:00,0.5,南西,1.2,南,-0.8,95.8,0,0,0,0,0,0,1013.6,1028.4
307,2021-02-01T05:06:00,0.5,南西,1.2,南南西,-0.6,95.8,0,0,0,0,0,0,1013.6,1028.4
308,2021-02-01T05:07:00,0.5,南西,1.2,南南西,-0.8,96,0,0,0,0,0,0,1013.6,1028.4
309,2021-02-01T05:08:00,0.5,南西,1.2,南南西,-0.7,95.9,0,0,0,0,0,0,1013.6,1028.4
310,2021-02-01T05:09:00,0.5,南西,1.2,南南西,-0.7,96,0,0,0,0,0,0,1013.6,1028.4
311,2021-02-01T05:10:00,0.5,南西,1.2,南南西,-0.6,96,0,0,0,0,0,0,1013.7,1028.5
312,2021-02-01T05:11:00,0.5,南西,1.3,南南西,-0.6,96.1,0,0,0,0,0,0,1013.7,1028.5
313,2021-02-01T05:12:00,0.6,南西,1.3,南南西,-0.6,96,0,0,0,0,0,0,1013.7,1028.5
314,2021-02-01T05:13:00,0.6,南西,1.3,南南西,-0.5,96.1,0,0,0,0,0,0,1013.7,1028.5
315,2021-02-01T05:14:00,0.6,南西,1.3,南南西,-0.6,96,0,0,0,0,0,0,1013.7,1028.5
316,2021-02-01T05:15:00,0.7,南西,1.3,南南西,-0.5,96,0,0,0,0,0,0,1013.7,1028.5
317,2021-02-01T05:16:00,0.7,南西,1.3,南南西,-0.5,96.1,0,0,0,0,0,0,1013.6,1028.4
318,2021-02-01T05:17:00,0.7,南西,1.3,南南西,-0.6,96.1,0,0,0,0,0,0,1013.5,1028.3
319,2021-02-01T05:18:00,0.7,南西,1.3,南南西,-0.6,95.9,0,0,0,0,0,0,1013.5,1028.3
320,2021-02-01T05:19:00,0.7,南西,1.3,南南西,-0.6,96,0,0,0,0,0,0,1013.4,1028.2
321,2021-02-01T05:20:00,0.7,南西,1.3,南南西,-0.7,96,0,0,0,0,0,0,1013.4,1028.2
322,2021-02-01T05:21:00,0.6,南西,1.2,南南西,-0.7,95.8,0,0,0,0,0,0,1013.4,1028.2
323,2021-02-01T05:22:00,0.6,南西,1.2,南南西,-0.8,95.8,0,0,0,0,0,0,1013.4,1028.2
324,2021-02-01T05:23:00,0.6,南西,1.2,南南西,-0.7,95.8,0,0,0,0,0,0,1013.4,1028.2
325,2021-02-01T05:24:00,0.6,南西,1.2,南南西,-0.7,95.9,0,0,0,0,0,0,1013.4,1028.2
326,2021-02-01T05:25:00,0.6,南西,1.2,南南西,-0.6,95.9,0,0,0,0,0,0,1013.4,1028.2
327,2021-02-01T05:26:00,0.6,南西,1.2,南南西,-0.6,96,0,0,0,0,0,0,1013.4,1028.2
328,2021-02-01T05:27:00,0.6,南西,1.2,南南西,-0.8,96,0,0,0,0,0,0,1013.4,1028.2